Weather History for Marathon, FL

Change the Weather History Date:

Monday, August 11, 2014

  Actual Average Record
Temperature  
Mean Temperature 88 °F 86 °F  
Max Temperature 92 °F 92 °F 95 °F (1997)
Min Temperature 83 °F 80 °F 76 °F (2012)
Degree Days  
Heating Degree Days 0 0  
Month to date heating degree days 0 0  
Since 1 June heating degree days 0 0  
Since 1 July heating degree days 0 0  
Cooling Degree Days 23 21  
Month to date cooling degree days 227 230  
Year to date cooling degree days 3246 2987  
Since 1 June cooling degree days 1461 1444  
Growing Degree Days 38 (Base 50)    
Moisture  
Dew Point 76 °F    
Average Humidity 67    
Maximum Humidity 74    
Minimum Humidity 60    
Precipitation  
Precipitation 0.00 in 0.21 in 0.64 in (2002)
Month to date precipitation 4.64 2.26  
Year to date precipitation 17.66 24.09  
Snow  
Snow 0.00 in - - ()
Month to date snowfall 0.0  
Since 1 June snowfall 0.0  
Since 1 July snowfall 0.0  
Snow Depth 0.00 in    
Sea Level Pressure  
Sea Level Pressure 30.04 in    
Wind  
Wind Speed 5 mph (ESE)    
Max Wind Speed 9 mph    
Max Gust Speed 12 mph    
Visibility 10 miles    
Events      
T = Trace of Precipitation, MM = Missing Value Source: NWS Daily Summary

Daily Weather History Graph

Daily Weather History Graph

Search for Another Location

Airport:

Trip Planner

Search our weather history database for the weather conditions in past years. The results will help you decide how hot, cold, wet, or windy it might be!

Date:

Astronomy

Aug. 11, 2014 Rise Set
Actual Time 6:56 AM EDT 8:01 PM EDT
Civil Twilight 6:32 AM EDT 8:25 PM EDT
Nautical Twilight 6:04 AM EDT 8:53 PM EDT
Astronomical Twilight 5:35 AM EDT 9:23 PM EDT
Moon 8:44 PM EDT (8/11) 7:48 AM EDT (8/11)
Length of Visible Light 13h 52m
Length of Day
13h 04m
Full, 99% of the Moon is Illuminated
Aug 11
Full
Aug 17
Last Quarter
Aug 25
New
Sep 2
First Quarter
Sep 8
Full

Hourly Weather History & Observations

Time (EDT) Temp. Heat Index Dew Point Humidity Pressure Visibility Wind Dir Wind Speed Gust Speed Precip Events Conditions
12:53 AM 84.9 °F 92.1 °F 73.9 °F 69% 30.04 in 10.0 mi ENE 4.6 mph - N/A   Clear
1:53 AM 84.0 °F 91.9 °F 75.0 °F 74% 30.04 in 10.0 mi East 3.5 mph - N/A   Clear
2:53 AM 84.0 °F 91.9 °F 75.0 °F 74% 30.03 in 10.0 mi ENE 3.5 mph - N/A   Clear
3:53 AM 84.0 °F 91.9 °F 75.0 °F 74% 30.02 in 10.0 mi Calm Calm - N/A   Partly Cloudy
4:53 AM 84.0 °F 91.9 °F 75.0 °F 74% 30.01 in 10.0 mi Variable 3.5 mph - N/A   Partly Cloudy
5:53 AM 84.0 °F 92.6 °F 75.9 °F 76% 30.00 in 10.0 mi Variable 3.5 mph - N/A   Partly Cloudy
6:53 AM 84.0 °F 91.9 °F 75.0 °F 74% 30.01 in 10.0 mi ESE 5.8 mph - N/A   Partly Cloudy
7:53 AM 84.0 °F 92.6 °F 75.9 °F 76% 30.04 in 10.0 mi Variable 3.5 mph - N/A   Mostly Cloudy
8:53 AM 86.0 °F 96.0 °F 75.9 °F 72% 30.05 in 10.0 mi Variable 4.6 mph - N/A   Clear
9:53 AM 88.0 °F 98.5 °F 75.9 °F 67% 30.07 in 10.0 mi East 4.6 mph - N/A   Clear
10:53 AM 90.0 °F 102.5 °F 77.0 °F 65% 30.08 in 10.0 mi SSE 5.8 mph - N/A   Partly Cloudy
11:53 AM 90.0 °F 102.5 °F 77.0 °F 65% 30.08 in 10.0 mi Variable 4.6 mph - N/A   Partly Cloudy
12:53 PM 91.0 °F 102.9 °F 75.9 °F 61% 30.08 in 10.0 mi Variable 4.6 mph - N/A   Clear
1:53 PM 91.0 °F 102.9 °F 75.9 °F 61% 30.05 in 10.0 mi ESE 5.8 mph - N/A   Clear
2:53 PM 91.0 °F 102.9 °F 75.9 °F 61% 30.04 in 10.0 mi Variable 5.8 mph - N/A   Clear
3:53 PM 91.0 °F 102.9 °F 75.9 °F 61% 30.01 in 10.0 mi SE 6.9 mph - N/A   Clear
4:53 PM 89.1 °F 101.4 °F 77.0 °F 67% 30.01 in 10.0 mi Variable 3.5 mph - N/A   Clear
5:53 PM 89.1 °F 101.4 °F 77.0 °F 67% 30.00 in 10.0 mi ESE 4.6 mph - N/A   Clear
6:53 PM 88.0 °F 100.2 °F 77.0 °F 70% 30.01 in 10.0 mi Variable 3.5 mph - N/A   Clear
7:53 PM 86.0 °F 95.1 °F 75.0 °F 70% 30.02 in 10.0 mi Variable 4.6 mph - N/A   Partly Cloudy
8:53 PM 84.9 °F 93.3 °F 75.0 °F 72% 30.03 in 10.0 mi ESE 5.8 mph - N/A   Clear
9:53 PM 84.9 °F 93.3 °F 75.0 °F 72% 30.04 in 10.0 mi SE 4.6 mph - N/A   Clear
10:53 PM 84.9 °F 93.3 °F 75.0 °F 72% 30.06 in 10.0 mi ESE 5.8 mph - N/A   Clear
11:53 PM 84.9 °F 93.3 °F 75.0 °F 72% 30.04 in 10.0 mi SE 6.9 mph - N/A   Clear